User: anonymous   Login
Location: Unspecified
(0.0000°N, 0.0000°E)
Time: 07:42:03
(UTC+00:00)
Language:

STARLINK-31845 - Orbit

View from above orbital plane
View from above orbital plane
View from above satellite
View from above satellite

Ground track
Ground track

The orbit is defined by the following mean orbital elements,

1 60129U          26144.95720579 +.00000000 +00000-0 +52738-4 0 00001
2 60129  53.1611  30.3026 0001222  81.9151 278.1988 15.30196703    01
Epoch (UTC): 24 May 2026 22:58:22
Eccentricity: 0.0001222
inclination: 53.1611°
perigee height: 474 km
apogee height: 476 km
right ascension of ascending node: 30.3026°
argument of perigee: 81.9151°
revolutions per day: 15.30196703
mean anomaly at epoch: 278.1988°

The dashed part of the orbit path shows where the satellite is in the earth's shadow,  

DLR